This is the latest recevied weather packets stored in our database for station/object OH6LSL. If no packets are shown the sender has not sent any weather packets the latest 10 day(s).
| Time | Temp. | Humidity | Pressure | Rain* | Wind** | Luminosity | Snow |
|---|---|---|---|---|---|---|---|
| 1777957485 | 3.33° C | 27% | 993.8 hPa | 0 mm | - | 37 W/m² | - |
| 1777956281 | 2.78° C | 29% | 993.6 hPa | 0 mm | - | 37 W/m² | - |
| 1777955091 | 2.78° C | 28% | 993.4 hPa | 0 mm | - | 19 W/m² | - |
| 1777949704 | 2.22° C | 28% | 993.4 hPa | 0 mm | - | 39 W/m² | - |
| 1777946685 | 2.22° C | 28% | 993.2 hPa | 0 mm | - | 7 W/m² | - |
| 1777945488 | 2.22° C | 29% | 993.1 hPa | 0 mm | - | 0 W/m² | - |
| 1777944280 | 2.22° C | 29% | 993.4 hPa | 0 mm | - | 0 W/m² | - |
| 1777943683 | 2.22° C | 29% | 993.4 hPa | 0 mm | - | 0 W/m² | - |
| 1777940703 | 3.33° C | 28% | 993.4 hPa | 0 mm | - | 0 W/m² | - |
| 1777940103 | 3.33° C | 29% | 993.4 hPa | 0 mm | - | 0 W/m² | - |
| 1777939474 | 3.33° C | 29% | 993.4 hPa | 0 mm | - | 0 W/m² | - |
| 1777937083 | 2.78° C | 32% | 993.3 hPa | 0 mm | - | 0 W/m² | - |
| 1777935895 | 3.33° C | 32% | 993.5 hPa | 0 mm | - | 0 W/m² | - |
| 1777934696 | 3.33° C | 33% | 994 hPa | 0 mm | - | 0 W/m² | - |
| 1777934085 | 3.89° C | 33% | 994 hPa | 0 mm | - | 0 W/m² | - |
| 1777933484 | 3.89° C | 33% | 993.8 hPa | 0 mm | - | 0 W/m² | - |
| 1777931081 | 3.89° C | 36% | 993.5 hPa | 0 mm | - | 0 W/m² | - |
| 1777929273 | 4.44° C | 38% | 993.6 hPa | 0 mm | - | 0 W/m² | - |
| 1777928081 | 4.44° C | 39% | 993.7 hPa | 0 mm | - | 0 W/m² | - |
| 1777927505 | 4.44° C | 41% | 993.8 hPa | 0 mm | - | 0 W/m² | - |
| 1777925701 | 3.89° C | 46% | 993.8 hPa | 0 mm | - | 0 W/m² | - |
| 1777925107 | 3.89° C | 49% | 993.8 hPa | 0 mm | - | 0 W/m² | - |
| 1777919673 | 5.56° C | 63% | 993.9 hPa | 0 mm | - | 0 W/m² | - |
| 1777917885 | 6.11° C | 66% | 994.2 hPa | 0 mm | - | 5 W/m² | - |
| 1777917305 | 6.11° C | 66% | 994.3 hPa | 0 mm | - | 5 W/m² | - |
* Rain latest hour (hover to see other rain measurements)
** Current wind speed in m/s (hover to see current wind gust speed)